When you browse on this site, cookies collect data to enhance your experience and personalize the content and advertising you see.
Visit our Privacy Policy to learn more. By continuing to use the site, you agree to this use of cookies and data.
  • In Sweden
  • List of Countries
  • For 7 days
  • Water Temperature
  • Weather Map
  • Weather Widgets
  • user-avatar
    Login

    Hourly Weather Champigny-sur-Marne

    Today, 12 November, Tuesday

    Time Temperature Precipitation Wind Pressure Humidity
    00:00 +4°C° 0 mm 4 mps 750 mmHg 82%
    01:00 +4°C° 0 mm 4 mps 750 mmHg 83%
    02:00 +3°C° 0 mm 5 mps 749 mmHg 85%
    03:00 +3°C° 0 mm 5 mps 749 mmHg 86%
    04:00 +4°C° 0.2 mm 6 mps 748 mmHg 84%
    05:00 +4°C° 0.2 mm 6 mps 748 mmHg 83%
    06:00 +5°C° 0 mm 5 mps 748 mmHg 83%
    07:00 +5°C° 0.1 mm 5 mps 748 mmHg 82%
    08:00 +6°C° 0.1 mm 5 mps 748 mmHg 81%
    09:00 +6°C° 0.1 mm 5 mps 748 mmHg 80%
    10:00 +6°C° 0.3 mm 5 mps 748 mmHg 77%
    11:00 +7°C° 0.3 mm 5 mps 748 mmHg 74%
    12:00 +7°C° 0.3 mm 5 mps 748 mmHg 70%
    13:00 +7°C° 0.1 mm 5 mps 748 mmHg 70%
    14:00 +7°C° 0.1 mm 4 mps 747 mmHg 70%
    15:00 +7°C° 0.1 mm 4 mps 747 mmHg 70%
    16:00 +6°C° 0 mm 4 mps 747 mmHg 73%
    17:00 +5°C° 0 mm 3 mps 747 mmHg 76%
    18:00 +5°C° 0 mm 3 mps 747 mmHg 79%
    19:00 +4°C° 0 mm 3 mps 747 mmHg 80%
    20:00 +4°C° 0 mm 3 mps 747 mmHg 81%
    21:00 +4°C° 0 mm 3 mps 747 mmHg 81%
    22:00 +4°C° 0 mm 3 mps 747 mmHg 81%
    23:00 +4°C° 0 mm 4 mps 747 mmHg 80%

    Tomorrow, 13 November, Wednesday

    Time Temperature Precipitation Wind Pressure Humidity
    00:00 +5°C° 0 mm 4 mps 747 mmHg 79%
    01:00 +4°C° 0 mm 3 mps 747 mmHg 81%
    02:00 +4°C° 0 mm 3 mps 747 mmHg 83%
    03:00 +4°C° 0 mm 3 mps 747 mmHg 85%
    04:00 +4°C° 0.1 mm 3 mps 747 mmHg 86%
    05:00 +4°C° 0.1 mm 3 mps 747 mmHg 87%
    06:00 +4°C° 0.1 mm 3 mps 747 mmHg 88%
    07:00 +5°C° 0.1 mm 3 mps 747 mmHg 87%
    08:00 +5°C° 0.1 mm 3 mps 747 mmHg 86%
    09:00 +5°C° 0.1 mm 3 mps 747 mmHg 84%
    10:00 +7°C° 0 mm 3 mps 747 mmHg 80%
    11:00 +8°C° 0 mm 3 mps 747 mmHg 76%
    12:00 +9°C° 0 mm 3 mps 747 mmHg 71%
    13:00 +8°C° 0 mm 4 mps 746 mmHg 70%
    14:00 +8°C° 0 mm 4 mps 746 mmHg 69%
    15:00 +8°C° 0 mm 4 mps 745 mmHg 68%
    16:00 +8°C° 0.1 mm 4 mps 745 mmHg 69%
    17:00 +7°C° 0.1 mm 4 mps 745 mmHg 71%
    18:00 +6°C° 0.1 mm 4 mps 744 mmHg 72%
    19:00 +6°C° 0 mm 5 mps 743 mmHg 73%
    20:00 +4°C° 0 mm 6 mps 743 mmHg 75%
    21:00 +4°C° 0 mm 6 mps 742 mmHg 76%
    22:00 +4°C° 0.6 mm 7 mps 741 mmHg 79%
    23:00 +4°C° 0.6 mm 7 mps 741 mmHg 81%

    Day after tomorrow, 14 November, Thursday

    Time Temperature Precipitation Wind Pressure Humidity
    00:00 +4°C° 0.6 mm 7 mps 740 mmHg 84%
    01:00 +4°C° 0.4 mm 6 mps 740 mmHg 83%
    02:00 +5°C° 0.4 mm 5 mps 740 mmHg 83%
    03:00 +5°C° 0.4 mm 5 mps 740 mmHg 82%
    04:00 +4°C° 0 mm 4 mps 740 mmHg 83%
    05:00 +4°C° 0 mm 4 mps 741 mmHg 84%
    06:00 +3°C° 0 mm 4 mps 741 mmHg 85%
    07:00 +4°C° 0 mm 4 mps 742 mmHg 83%
    08:00 +4°C° 0 mm 4 mps 743 mmHg 80%
    09:00 +4°C° 0 mm 4 mps 743 mmHg 78%
    10:00 +5°C° 0 mm 3 mps 743 mmHg 73%
    11:00 +7°C° 0 mm 3 mps 744 mmHg 68%
    12:00 +8°C° 0 mm 3 mps 744 mmHg 63%
    13:00 +8°C° 0 mm 2 mps 744 mmHg 63%
    14:00 +8°C° 0 mm 2 mps 744 mmHg 63%
    15:00 +8°C° 0 mm 2 mps 744 mmHg 63%
    16:00 +7°C° 0 mm 2 mps 744 mmHg 68%
    17:00 +7°C° 0 mm 1 mps 744 mmHg 73%
    18:00 +6°C° 0 mm 1 mps 745 mmHg 78%
    19:00 +6°C° 0 mm 1 mps 745 mmHg 80%
    20:00 +5°C° 0 mm 1 mps 745 mmHg 81%
    21:00 +5°C° 0 mm 1 mps 745 mmHg 83%
    22:00 +5°C° 0 mm 1 mps 745 mmHg 84%
    23:00 +5°C° 0 mm 1 mps 745 mmHg 85%

    15 November, Friday

    Time Temperature Precipitation Wind Pressure Humidity
    00:00 +4°C° 0 mm 1 mps 745 mmHg 86%
    01:00 +4°C° 0 mm 1 mps 746 mmHg 87%
    02:00 +4°C° 0 mm 1 mps 746 mmHg 87%
    03:00 +4°C° 0 mm 1 mps 746 mmHg 88%
    04:00 +4°C° 0 mm 1 mps 746 mmHg 89%
    05:00 +3°C° 0 mm 2 mps 746 mmHg 90%
    06:00 +3°C° 0 mm 2 mps 746 mmHg 90%
    07:00 +3°C° 0 mm 2 mps 747 mmHg 89%
    08:00 +5°C° 0 mm 1 mps 747 mmHg 87%
    09:00 +5°C° 0 mm 1 mps 747 mmHg 86%
    10:00 +6°C° 0 mm 1 mps 747 mmHg 84%
    11:00 +6°C° 0 mm 1 mps 747 mmHg 83%
    12:00 +6°C° 0 mm 0 mps 747 mmHg 81%
    13:00 +6°C° 0 mm 0 mps 747 mmHg 80%
    14:00 +6°C° 0 mm 0 mps 747 mmHg 79%
    15:00 +7°C° 0 mm 1 mps 747 mmHg 79%
    16:00 +7°C° 0.1 mm 1 mps 747 mmHg 81%
    17:00 +6°C° 0.1 mm 1 mps 747 mmHg 83%
    18:00 +6°C° 0.1 mm 1 mps 747 mmHg 85%
    19:00 +5°C° 0.1 mm 2 mps 748 mmHg 85%
    20:00 +5°C° 0.1 mm 2 mps 748 mmHg 86%
    21:00 +3°C° 0.1 mm 3 mps 748 mmHg 86%
    22:00 +3°C° 0 mm 4 mps 748 mmHg 86%
    23:00 +3°C° 0 mm 4 mps 748 mmHg 86%

    16 November, Saturday

    Time Temperature Precipitation Wind Pressure Humidity
    00:00 +3°C° 0 mm 5 mps 748 mmHg 85%
    01:00 +3°C° 0 mm 5 mps 748 mmHg 85%
    02:00 +3°C° 0 mm 5 mps 748 mmHg 85%
    03:00 +3°C° 0 mm 5 mps 748 mmHg 85%
    04:00 +3°C° 0 mm 5 mps 748 mmHg 85%
    05:00 +3°C° 0 mm 5 mps 748 mmHg 85%
    06:00 +3°C° 0 mm 5 mps 748 mmHg 86%
    07:00 +3°C° 0 mm 5 mps 748 mmHg 85%
    08:00 +3°C° 0 mm 5 mps 749 mmHg 84%
    09:00 +3°C° 0 mm 6 mps 749 mmHg 84%
    10:00 +3°C° 0 mm 6 mps 749 mmHg 82%
    11:00 +4°C° 0 mm 6 mps 749 mmHg 81%
    12:00 +4°C° 0 mm 6 mps 749 mmHg 80%
    13:00 +4°C° 0.2 mm 6 mps 749 mmHg 80%
    14:00 +4°C° 0.2 mm 6 mps 749 mmHg 81%
    15:00 +5°C° 0.2 mm 6 mps 749 mmHg 81%
    16:00 +4°C° 0.1 mm 6 mps 750 mmHg 82%
    17:00 +4°C° 0.1 mm 6 mps 750 mmHg 83%
    18:00 +4°C° 0.1 mm 6 mps 750 mmHg 84%
    19:00 +4°C° 0.2 mm 6 mps 750 mmHg 85%
    20:00 +5°C° 0.2 mm 5 mps 750 mmHg 85%
    21:00 +5°C° 0.2 mm 5 mps 750 mmHg 85%
    22:00 +5°C° 0.3 mm 5 mps 750 mmHg 86%
    23:00 +5°C° 0.3 mm 5 mps 750 mmHg 86%

    17 November, Sunday

    Time Temperature Precipitation Wind Pressure Humidity
    00:00 +5°C° 0.3 mm 5 mps 750 mmHg 86%
    01:00 +5°C° 0.5 mm 5 mps 750 mmHg 87%
    02:00 +5°C° 0.5 mm 4 mps 750 mmHg 88%
    03:00 +5°C° 0.5 mm 4 mps 750 mmHg 88%
    04:00 +5°C° 0.1 mm 4 mps 750 mmHg 88%
    05:00 +5°C° 0.1 mm 3 mps 750 mmHg 89%
    06:00 +4°C° 0.1 mm 3 mps 750 mmHg 89%
    07:00 +4°C° 0 mm 3 mps 750 mmHg 87%
    08:00 +4°C° 0 mm 3 mps 750 mmHg 85%
    09:00 +6°C° 0 mm 2 mps 751 mmHg 83%
    10:00 +6°C° 0 mm 2 mps 751 mmHg 79%
    11:00 +7°C° 0 mm 2 mps 751 mmHg 75%
    12:00 +8°C° 0 mm 2 mps 751 mmHg 71%
    13:00 +8°C° 0 mm 2 mps 750 mmHg 70%
    14:00 +8°C° 0 mm 2 mps 750 mmHg 69%
    15:00 +8°C° 0 mm 2 mps 750 mmHg 68%
    16:00 +8°C° 0 mm 1 mps 750 mmHg 72%
    17:00 +8°C° 0 mm 1 mps 750 mmHg 76%
    18:00 +7°C° 0 mm 1 mps 751 mmHg 79%
    19:00 +6°C° 0 mm 0 mps 751 mmHg 80%
    20:00 +5°C° 0 mm 0 mps 751 mmHg 81%
    21:00 +5°C° 0 mm 0 mps 751 mmHg 82%
    22:00 +5°C° 0 mm 0 mps 751 mmHg 83%
    23:00 +5°C° 0 mm 0 mps 751 mmHg 84%
    Show more